QPF
0.00 0.00 0.00 0.00 0.00 0.00 0.00 0.00 0.00 0.00 0.00 0.00 0.00 0.00 0.00 0.00 0.00 0.00 0.00 0.00 0.00 0.00 0.00 0.00 0.00 0.00 0.00 0.00 0.00 0.00 0.00 0.00 0.00 0.00 0.00 0.00 0.00 0.00 0.00 0.00 0.00 0.00 0.00 0.00
0.00 0.00 0.00 0.00 0.00 0.00 0.00 0.00 0.00 0.00 0.00 0.00 0.00 0.00 0.00 0.00 0.00 0.00 0.00 0.00 0.00 0.00 0.00 0.00 0.00 0.00 0.00 0.00 0.00 0.00 0.00 0.00 0.00 0.00 0.00 0.00 0.00 0.00 0.00 0.00 0.00 0.00 0.00 0.00
0.00 0.00 0.00 0.00 0.00 0.00 0.00 0.00 0.00 0.00 0.00 0.00 0.00 0.00 0.00 0.00 0.00 0.00 0.00 0.00 0.00 0.00 0.00 0.00 0.00 0.00 0.00 0.00 0.00 0.00 0.00 0.00 0.00 0.00 0.00 0.00 0.00 0.00 0.00 0.00 0.00 0.00 0.00 0.00
0.00 0.00 0.00 0.00 0.00 0.00 0.00 0.00 0.00 0.00 0.00 0.00 0.00 0.00 0.00 0.00 0.00 0.00 0.02 0.04 0.01 0.00 0.00 0.00 0.00 0.00 0.00 0.00 0.00 0.00 0.00 0.00 0.00 0.00 0.00 0.00 0.00 0.00 0.00 0.00 0.00 0.00 0.00 0.00
0.00 0.00 0.00 0.00 0.00 0.00 0.00 0.00 0.00 0.00 0.00 0.00 0.00 0.00 0.00 0.00 0.01 0.01 0.02 0.05 0.11 0.04 0.01 0.00 0.01 0.01 0.00 0.00 0.00 0.00 0.00 0.00 0.00 0.00 0.00 0.00 0.00 0.00 0.00 0.00 0.00 0.00 0.00 0.00
0.00 0.00 0.00 0.00 0.00 0.00 0.00 0.00 0.00 0.00 0.00 0.00 0.00 0.00 0.00 0.00 0.00 0.02 0.02 0.06 0.12 0.10 0.45 0.19 0.03 0.01 0.02 0.02 0.00 0.00 0.00 0.00 0.00 0.00 0.00 0.00 0.00 0.00 0.00 0.00 0.00 0.00 0.00 0.00
0.00 0.00 0.00 0.00 0.00 0.00 0.00 0.00 0.00 0.00 0.00 0.00 0.00 0.00 0.00 0.00 0.00 0.00 0.00 0.00 0.01 0.00 0.09 0.39 0.31 0.21 0.08 0.02 0.03 0.00 0.00 0.00 0.00 0.00 0.00 0.00 0.00 0.00 0.00 0.00 0.00 0.00 0.00 0.00
0.00 0.00 0.00 0.00 0.00 0.00 0.00 0.00 0.00 0.00 0.00 0.00 0.00 0.00 0.00 0.00 0.00 0.00 0.00 0.00 0.00 0.00 0.00 0.00 0.00 0.04 0.18 0.26 0.14 0.03 0.01 0.00 0.00 0.00 0.00 0.00 0.00 0.00 0.00 0.00 0.00 0.00 0.00 0.00
0.00 0.00 0.00 0.00 0.00 0.00 0.00 0.00 0.00 0.00 0.00 0.00 0.00 0.00 0.01 0.01 0.00 0.00 0.00 0.00 0.00 0.00 0.00 0.00 0.00 0.00 0.00 0.04 0.11 0.13 0.08 0.03 0.00 0.00 0.00 0.00 0.00 0.00 0.00 0.00 0.00 0.00 0.00 0.00
0.00 0.00 0.00 0.00 0.00 0.00 0.00 0.00 0.00 0.00 0.00 0.00 0.00 0.00 0.00 0.00 0.00 0.00 0.00 0.00 0.00 0.00 0.00 0.00 0.00 0.00 0.00 0.00 0.01 0.05 0.06 0.10 0.21 0.06 0.00 0.00 0.00 0.00 0.00 0.00 0.00 0.00 0.00 0.00
0.00 0.00 0.00 0.00 0.00 0.00 0.00 0.00 0.00 0.00 0.00 0.00 0.00 0.00 0.00 0.00 0.00 0.00 0.00 0.00 0.00 0.00 0.00 0.00 0.00 0.00 0.00 0.00 0.00 0.01 0.04 0.13 0.15 0.04 0.00 0.00 0.00 0.00 0.00 0.00 0.00 0.00 0.00 0.00
0.00 0.00 0.00 0.00 0.00 0.00 0.00 0.00 0.00 0.00 0.00 0.00 0.00 0.00 0.00 0.00 0.00 0.00 0.00 0.00 0.00 0.00 0.00 0.00 0.00 0.00 0.00 0.00 0.00 0.00 0.01 0.04 0.04 0.02 0.01 0.00 0.00 0.00 0.00 0.00 0.00 0.00 0.00 0.00
0.00 0.00 0.00 0.00 0.00 0.00 0.00 0.00 0.00 0.00 0.00 0.00 0.00 0.00 0.00 0.00 0.00 0.00 0.00 0.00 0.00 0.00 0.00 0.00 0.00 0.00 0.00 0.00 0.00 0.00 0.00 0.02 0.09 0.04 0.01 0.01 0.00 0.00 0.00 0.00 0.00 0.00 0.00 0.00
0.00 0.00 0.00 0.00 0.00 0.00 0.00 0.00 0.00 0.00 0.00 0.00 0.00 0.00 0.00 0.00 0.00 0.00 0.00 0.00 0.00 0.00 0.00 0.00 0.00 0.00 0.00 0.00 0.00 0.00 0.00 0.01 0.04 0.07 0.13 0.06 0.08 0.13 0.03 0.00 0.00 0.00 0.00 0.00
0.00 0.00 0.00 0.00 0.00 0.00 0.00 0.00 0.00 0.00 0.00 0.00 0.00 0.00 0.00 0.00 0.00 0.00 0.00 0.00 0.00 0.00 0.00 0.00 0.00 0.00 0.00 0.00 0.00 0.00 0.00 0.00 0.01 0.04 0.08 0.13 0.10 0.18 0.18 0.13 0.11 0.03 0.02 0.00
0.00 0.00 0.00 0.00 0.00 0.00 0.00 0.00 0.00 0.00 0.00 0.00 0.00 0.00 0.00 0.00 0.00 0.00 0.00 0.00 0.00 0.00 0.00 0.00 0.00 0.00 0.00 0.00 0.00 0.00 0.00 0.00 0.00 0.01 0.01 0.03 0.06 0.11 0.15 0.14 0.12 0.09 0.01 0.03
0.00 0.00 0.00 0.00 0.00 0.00 0.00 0.00 0.00 0.00 0.00 0.00 0.00 0.00 0.00 0.00 0.00 0.00 0.00 0.00 0.00 0.00 0.00 0.00 0.00 0.00 0.00 0.00 0.00 0.00 0.00 0.00 0.00 0.00 0.00 0.00 0.00 0.05 0.11 0.15 0.21 0.21 0.19 0.16
0.00 0.00 0.00 0.00 0.00 0.00 0.00 0.00 0.00 0.00 0.00 0.00 0.00 0.00 0.00 0.00 0.00 0.00 0.00 0.00 0.00 0.00 0.00 0.00 0.00 0.00 0.00 0.00 0.00 0.00 0.00 0.00 0.00 0.00 0.00 0.00 0.01 0.04 0.03 0.07 0.23 0.37 0.49 0.53
0.00 0.00 0.00 0.00 0.00 0.00 0.00 0.00 0.00 0.00 0.00 0.00 0.00 0.00 0.00 0.00 0.00 0.00 0.00 0.00 0.00 0.00 0.00 0.00 0.00 0.00 0.00 0.00 0.00 0.00 0.00 0.00 0.00 0.00 0.00 0.00 0.01 0.05 0.03 0.01 0.00 0.06 0.27 0.35
0.00 0.00 0.00 0.00 0.00 0.00 0.00 0.00 0.00 0.00 0.00 0.00 0.00 0.00 0.00 0.00 0.00 0.00 0.00 0.00 0.00 0.00 0.00 0.00 0.00 0.00 0.00 0.00 0.00 0.00 0.00 0.00 0.00 0.00 0.00 0.00 0.01 0.04 0.01 0.01 0.02 0.09 0.14 0.38
0.00 0.00 0.00 0.00 0.00 0.00 0.00 0.00 0.00 0.00 0.00 0.00 0.00 0.00 0.00 0.00 0.00 0.00 0.00 0.00 0.00 0.00 0.00 0.00 0.00 0.00 0.00 0.00 0.00 0.00 0.00 0.00 0.00 0.00 0.00 0.00 0.00 0.04 0.06 0.03 0.01 0.05 0.07 0.16
0.00 0.00 0.00 0.00 0.00 0.00 0.00 0.00 0.00 0.00 0.00 0.00 0.00 0.00 0.00 0.00 0.00 0.00 0.00 0.00 0.00 0.00 0.00 0.00 0.00 0.00 0.00 0.00 0.00 0.00 0.00 0.00 0.00 0.00 0.00 0.00 0.00 0.02 0.05 0.13 0.04 0.00 0.01 0.03
0.00 0.00 0.00 0.00 0.00 0.00 0.00 0.00 0.00 0.00 0.00 0.00 0.00 0.00 0.00 0.00 0.00 0.00 0.00 0.00 0.00 0.00 0.00 0.00 0.00 0.00 0.00 0.00 0.00 0.00 0.00 0.00 0.00 0.00 0.00 0.00 0.00 0.02 0.08 0.08 0.15 0.20 0.18 0.06
0.00 0.00 0.00 0.00 0.00 0.00 0.00 0.00 0.00 0.00 0.00 0.00 0.00 0.00 0.00 0.00 0.00 0.00 0.00 0.00 0.00 0.00 0.01 0.00 0.00 0.00 0.00 0.00 0.00 0.00 0.00 0.00 0.00 0.00 0.00 0.01 0.02 0.02 0.02 0.04 0.15 0.33 0.27 0.10
0.00 0.00 0.00 0.00 0.00 0.01 0.04 0.02 0.00 0.00 0.00 0.00 0.00 0.00 0.00 0.00 0.00 0.00 0.00 0.00 0.00 0.00 0.01 0.01 0.01 0.00 0.00 0.00 0.00 0.00 0.00 0.00 0.00 0.00 0.00 0.01 0.03 0.03 0.01 0.02 0.02 0.12 0.17 0.26
0.00 0.00 0.00 0.00 0.02 0.03 0.02 0.00 0.00 0.00 0.00 0.00 0.00 0.00 0.00 0.00 0.00 0.00 0.00 0.01 0.03 0.06 0.07 0.06 0.03 0.01 0.01 0.02 0.03 0.05 0.03 0.03 0.02 0.03 0.03 0.02 0.07 0.07 0.05 0.03 0.01 0.01 0.02 0.03
MSLP
1003.63 1003.91 1003.29 1002.72 1002.18 1002.75 1003.23 1003.56 1004.11 1004.70 1004.67 1005.04 1005.14 1005.22 1005.39 1005.44 1006.10 1006.70 1007.25 1007.72 1008.27 1008.74 1009.23 1009.95 1010.55 1011.17 1011.92 1012.60 1013.34 1013.91 1014.56 1015.13 1015.53 1015.91 1016.45 1016.85 1017.05 1016.92 1017.01 1017.33 1017.30 1017.60 1017.83 1017.92
1004.02 1003.45 1002.69 1002.25 1002.35 1002.72 1003.00 1003.15 1003.69 1004.09 1004.19 1004.77 1004.39 1004.30 1004.52 1004.77 1004.96 1005.46 1006.12 1006.98 1007.70 1008.34 1008.96 1009.77 1010.43 1011.14 1012.02 1012.58 1013.05 1013.76 1014.34 1014.92 1015.30 1015.76 1016.08 1016.46 1016.79 1016.76 1016.82 1016.87 1017.04 1017.33 1017.54 1017.72
1003.85 1003.18 1002.32 1002.33 1002.67 1003.04 1003.30 1003.59 1003.70 1004.11 1004.23 1004.12 1004.29 1004.45 1004.24 1004.40 1004.77 1005.20 1005.63 1006.38 1007.18 1007.79 1008.88 1009.75 1010.49 1011.22 1011.91 1012.65 1013.10 1013.46 1014.18 1014.72 1015.16 1015.50 1015.88 1016.33 1016.59 1016.64 1016.73 1016.87 1017.13 1017.01 1017.09 1017.34
1003.38 1002.80 1002.70 1002.80 1003.10 1003.38 1004.03 1004.01 1004.13 1004.49 1005.04 1005.01 1004.66 1004.90 1003.99 1004.12 1004.58 1004.63 1005.41 1006.57 1007.22 1007.70 1008.65 1009.49 1010.25 1011.00 1011.68 1012.48 1013.06 1013.52 1014.00 1014.62 1014.98 1015.39 1015.81 1016.19 1016.38 1016.54 1016.41 1016.37 1016.55 1016.73 1016.69 1016.95
1003.50 1003.28 1003.12 1003.26 1003.54 1003.58 1004.34 1004.67 1005.05 1005.43 1005.87 1006.07 1005.12 1005.25 1003.49 1003.75 1004.73 1004.92 1006.38 1007.64 1008.99 1009.36 1010.65 1011.96 1011.88 1011.16 1011.28 1012.19 1012.72 1013.31 1013.94 1014.52 1014.85 1015.14 1015.42 1015.82 1016.16 1016.19 1016.05 1016.14 1016.23 1016.32 1016.52 1016.54
1003.87 1003.66 1003.68 1003.98 1004.03 1004.15 1004.52 1005.15 1005.67 1006.22 1006.98 1007.39 1005.55 1005.66 1003.94 1003.78 1004.69 1006.29 1007.43 1008.67 1009.12 1009.80 1010.30 1011.87 1013.24 1013.00 1012.76 1012.58 1012.67 1013.21 1013.65 1014.00 1014.47 1014.82 1014.95 1015.36 1015.69 1015.77 1015.99 1016.12 1016.28 1016.12 1016.23 1016.34
1003.99 1004.07 1004.31 1004.44 1004.60 1004.57 1005.11 1006.25 1007.18 1007.86 1008.12 1007.37 1005.41 1005.76 1005.08 1004.34 1005.19 1005.99 1006.97 1007.74 1009.06 1010.19 1011.42 1012.57 1013.12 1012.23 1012.76 1014.18 1013.85 1013.40 1013.44 1013.81 1013.66 1013.85 1014.30 1014.51 1014.97 1015.25 1015.38 1015.63 1015.70 1015.86 1015.96 1016.05
1004.91 1005.04 1004.68 1004.89 1005.11 1005.42 1005.88 1006.60 1007.97 1008.76 1008.72 1007.37 1005.26 1005.94 1005.97 1004.69 1004.90 1005.86 1007.02 1008.25 1009.32 1010.72 1011.78 1011.96 1012.04 1012.58 1013.04 1013.78 1014.76 1014.39 1014.58 1013.69 1013.35 1013.23 1013.16 1013.36 1013.97 1014.51 1014.72 1014.91 1015.08 1015.28 1015.22 1015.30
1006.02 1005.80 1005.32 1005.29 1005.53 1005.91 1006.38 1007.20 1007.72 1008.53 1008.12 1008.29 1007.33 1006.89 1006.87 1006.34 1006.58 1006.82 1007.54 1008.22 1009.11 1009.74 1010.20 1011.06 1011.63 1012.65 1013.45 1014.13 1014.94 1014.46 1014.44 1014.59 1013.89 1012.65 1012.59 1012.69 1012.91 1013.29 1013.96 1014.11 1014.30 1014.55 1014.63 1014.64
1006.98 1006.65 1005.90 1006.04 1005.91 1006.06 1006.54 1007.34 1008.02 1009.09 1009.98 1009.70 1008.97 1008.17 1007.73 1007.64 1007.91 1008.18 1008.67 1009.26 1009.74 1010.16 1010.63 1011.14 1011.60 1012.15 1012.99 1013.16 1013.58 1014.24 1014.29 1013.62 1013.71 1013.17 1012.93 1012.42 1011.95 1012.45 1012.51 1013.19 1013.48 1013.74 1013.92 1014.01
1007.60 1007.75 1007.46 1006.56 1006.33 1006.50 1007.17 1007.83 1008.62 1009.61 1010.19 1010.56 1010.45 1009.84 1007.83 1008.43 1008.61 1009.29 1009.76 1010.11 1010.44 1011.03 1011.38 1011.72 1011.84 1012.24 1012.80 1013.24 1013.53 1013.69 1013.96 1013.78 1013.30 1012.24 1011.19 1010.79 1011.50 1011.49 1011.95 1011.98 1012.43 1012.70 1013.13 1013.32
1009.04 1008.98 1008.82 1008.08 1007.05 1006.47 1007.19 1008.09 1009.15 1010.67 1011.25 1011.23 1010.95 1010.57 1009.85 1009.70 1009.92 1010.17 1010.61 1010.89 1011.16 1011.34 1011.67 1011.93 1012.04 1012.56 1012.85 1012.97 1013.09 1013.34 1013.32 1013.00 1012.73 1011.60 1010.73 1010.42 1010.49 1010.84 1011.15 1011.25 1011.50 1011.81 1012.06 1012.38
1010.30 1010.44 1010.12 1008.67 1008.20 1008.19 1008.15 1008.52 1009.17 1010.16 1010.84 1011.65 1012.06 1011.66 1010.31 1010.30 1010.99 1011.62 1012.01 1012.17 1012.11 1012.02 1012.04 1012.17 1012.35 1012.61 1012.80 1012.90 1012.97 1012.99 1013.13 1013.26 1012.68 1011.89 1011.43 1010.58 1010.34 1010.45 1010.24 1010.33 1010.62 1010.75 1011.17 1011.38
1010.48 1011.13 1011.37 1011.11 1010.65 1010.05 1009.78 1009.41 1009.62 1010.43 1011.48 1011.95 1011.88 1011.82 1012.05 1012.09 1012.66 1012.99 1013.14 1013.30 1013.45 1013.39 1013.36 1013.41 1013.44 1013.26 1013.16 1013.06 1012.95 1012.84 1012.93 1013.05 1012.87 1012.49 1011.88 1011.29 1010.38 1009.98 1009.77 1009.49 1009.59 1009.84 1009.90 1010.33
1011.11 1011.81 1011.86 1011.59 1011.10 1010.82 1010.58 1010.33 1010.29 1010.78 1011.28 1012.03 1012.30 1013.04 1014.00 1014.02 1014.09 1014.01 1014.10 1014.19 1014.16 1014.06 1013.86 1013.88 1013.97 1013.89 1013.55 1013.41 1013.13 1012.80 1012.64 1012.75 1012.78 1012.76 1012.21 1011.68 1010.97 1010.33 1009.73 1009.35 1009.19 1008.82 1009.02 1009.16
1011.29 1012.05 1012.30 1012.45 1011.85 1011.27 1010.85 1010.35 1010.16 1010.57 1011.18 1011.88 1012.54 1013.77 1014.21 1014.79 1014.73 1014.90 1014.91 1014.83 1014.84 1014.70 1014.48 1014.25 1014.18 1013.99 1013.81 1013.45 1013.18 1012.78 1012.36 1012.15 1012.28 1012.46 1012.29 1011.62 1011.02 1010.35 1009.55 1008.92 1008.22 1008.17 1007.53 1007.61
1011.80 1012.74 1013.37 1013.38 1012.89 1012.30 1011.73 1010.66 1010.46 1010.86 1011.85 1012.83 1014.12 1015.10 1014.79 1015.04 1015.22 1015.47 1015.67 1015.74 1015.83 1015.70 1015.22 1014.76 1014.43 1014.12 1013.81 1013.53 1013.05 1012.77 1012.25 1012.03 1011.81 1011.68 1011.53 1011.36 1010.66 1009.95 1009.21 1008.15 1007.26 1006.73 1007.29 1007.14
1012.29 1013.08 1013.86 1014.35 1013.81 1013.31 1012.31 1011.20 1011.15 1011.72 1012.94 1013.87 1014.79 1015.47 1015.77 1016.04 1016.14 1016.20 1016.14 1016.37 1016.39 1016.18 1015.77 1015.25 1014.63 1014.12 1013.62 1013.07 1012.84 1012.53 1012.34 1012.13 1011.83 1011.40 1010.98 1010.61 1010.28 1009.51 1008.65 1007.85 1006.66 1006.57 1006.28 1004.25
1012.38 1013.38 1014.37 1014.64 1014.46 1013.45 1012.58 1012.78 1012.76 1013.16 1014.76 1015.28 1015.77 1016.11 1016.45 1016.55 1016.56 1016.69 1016.80 1016.90 1016.71 1016.33 1015.82 1015.20 1014.62 1013.97 1013.25 1012.60 1012.28 1012.18 1012.15 1012.02 1011.86 1011.34 1010.85 1010.41 1009.90 1009.27 1008.40 1007.49 1006.50 1005.81 1006.40 1006.22
1012.59 1013.35 1014.64 1015.13 1015.27 1014.64 1014.21 1013.71 1013.70 1014.11 1015.72 1016.55 1017.03 1017.74 1018.14 1018.18 1018.40 1018.35 1018.17 1017.77 1017.06 1016.40 1015.77 1014.97 1014.17 1013.45 1013.12 1012.74 1012.41 1012.21 1012.27 1012.04 1011.68 1011.14 1010.71 1010.31 1009.97 1009.33 1008.19 1007.30 1006.38 1005.41 1004.93 1004.88
1012.93 1013.84 1014.70 1015.07 1015.21 1014.86 1014.64 1014.19 1013.96 1015.38 1017.65 1017.69 1018.15 1018.88 1019.41 1019.92 1020.28 1019.77 1019.34 1018.75 1018.09 1017.25 1016.52 1015.52 1014.53 1014.12 1013.75 1013.61 1013.31 1012.98 1012.64 1012.42 1011.87 1011.14 1010.55 1010.04 1009.48 1008.83 1007.58 1006.74 1005.97 1005.30 1005.00 1005.01
1012.81 1013.68 1014.42 1014.89 1015.26 1015.38 1014.76 1014.51 1015.51 1016.93 1017.68 1018.37 1019.05 1019.71 1020.31 1020.80 1020.72 1020.52 1020.18 1019.83 1019.08 1018.15 1017.41 1016.78 1015.53 1014.97 1014.55 1014.19 1014.04 1013.62 1013.12 1012.59 1012.05 1011.15 1010.30 1009.64 1009.00 1008.16 1006.93 1006.08 1005.22 1004.78 1004.78 1004.99
1012.92 1013.33 1014.35 1015.16 1015.77 1015.85 1015.80 1016.21 1016.64 1017.15 1018.18 1019.04 1019.81 1020.66 1021.10 1021.16 1021.33 1021.31 1020.93 1020.60 1019.93 1019.22 1018.46 1017.61 1016.40 1015.65 1015.20 1014.72 1014.48 1014.02 1013.12 1012.69 1011.75 1010.70 1009.77 1009.04 1008.25 1007.25 1006.13 1005.28 1004.56 1004.35 1004.18 1004.38
1012.91 1013.31 1014.35 1015.12 1015.90 1016.07 1016.27 1016.90 1017.18 1017.70 1018.55 1019.49 1020.30 1021.02 1021.54 1022.01 1022.16 1022.10 1021.78 1021.21 1020.61 1019.91 1018.89 1018.10 1017.10 1016.03 1015.68 1015.14 1014.62 1014.03 1013.07 1012.17 1011.08 1010.00 1009.03 1008.33 1007.51 1006.26 1005.11 1004.77 1004.17 1003.85 1003.86 1004.13
1013.22 1013.66 1014.39 1015.26 1016.13 1016.36 1017.01 1017.46 1017.34 1018.35 1018.91 1019.85 1020.43 1020.99 1021.81 1022.19 1022.29 1021.93 1021.80 1021.21 1020.65 1019.84 1019.06 1018.41 1017.62 1016.64 1015.93 1015.16 1014.38 1013.68 1012.53 1011.29 1010.06 1008.92 1007.85 1007.14 1006.35 1005.45 1005.24 1005.09 1004.92 1004.51 1004.47 1004.11
1013.59 1014.14 1014.98 1015.64 1016.24 1016.51 1016.47 1016.66 1017.27 1018.36 1019.38 1019.99 1020.17 1020.99 1021.55 1021.77 1021.69 1021.14 1020.96 1020.90 1020.19 1019.44 1018.84 1018.19 1017.69 1016.75 1015.73 1014.98 1014.39 1013.22 1011.86 1010.70 1009.24 1007.66 1006.67 1005.75 1005.02 1005.05 1005.11 1005.31 1005.22 1005.26 1005.17 1005.05
Thickness
5833 5810 5800 5828 5842 5843 5838 5828 5818 5823 5837 5825 5824 5825 5831 5838 5837 5830 5829 5829 5827 5827 5831 5831 5829 5829 5824 5822 5815 5814 5809 5808 5808 5804 5801 5799 5798 5802 5805 5804 5806 5805 5804 5805
5813 5800 5831 5847 5844 5837 5834 5827 5819 5827 5838 5826 5831 5830 5840 5844 5844 5844 5840 5836 5833 5833 5831 5829 5827 5826 5822 5819 5819 5815 5812 5810 5808 5807 5805 5804 5802 5804 5806 5807 5807 5807 5807 5807
5798 5818 5845 5837 5829 5820 5818 5814 5814 5811 5828 5837 5831 5816 5828 5845 5850 5848 5850 5848 5844 5838 5829 5828 5825 5823 5822 5817 5816 5817 5814 5812 5810 5809 5806 5803 5803 5804 5803 5805 5805 5808 5810 5809
5811 5834 5828 5824 5819 5823 5792 5824 5822 5817 5800 5780 5826 5767 5818 5836 5838 5848 5843 5838 5840 5840 5836 5830 5828 5825 5823 5819 5819 5816 5816 5812 5810 5809 5805 5802 5799 5797 5802 5807 5809 5810 5812 5812
5803 5806 5814 5813 5811 5825 5806 5825 5817 5815 5798 5793 5801 5782 5816 5839 5815 5832 5828 5820 5815 5816 5812 5801 5807 5824 5827 5823 5820 5816 5814 5813 5812 5809 5807 5804 5800 5802 5806 5807 5809 5812 5813 5814
5809 5828 5820 5813 5820 5824 5825 5812 5807 5805 5787 5750 5794 5785 5790 5818 5820 5813 5818 5810 5815 5808 5809 5798 5796 5802 5807 5816 5817 5814 5812 5811 5812 5811 5810 5805 5803 5803 5802 5805 5805 5810 5813 5814
5799 5800 5812 5816 5798 5812 5808 5782 5739 5743 5744 5743 5806 5791 5800 5825 5824 5821 5819 5818 5813 5805 5796 5787 5783 5805 5811 5796 5802 5809 5809 5806 5813 5814 5812 5812 5808 5806 5806 5806 5810 5809 5810 5813
5759 5748 5791 5808 5793 5784 5787 5781 5734 5727 5732 5759 5807 5774 5787 5836 5840 5836 5827 5819 5812 5800 5789 5793 5800 5802 5800 5792 5784 5800 5794 5801 5807 5811 5814 5815 5813 5810 5810 5810 5810 5811 5814 5816
5742 5754 5796 5801 5801 5794 5779 5754 5789 5762 5780 5759 5783 5799 5800 5811 5811 5814 5813 5812 5807 5806 5802 5795 5795 5792 5789 5786 5782 5790 5783 5792 5799 5811 5813 5814 5814 5814 5810 5813 5814 5814 5816 5818
5766 5742 5783 5790 5800 5797 5785 5790 5741 5740 5729 5739 5756 5770 5763 5780 5783 5792 5791 5791 5793 5799 5797 5794 5790 5787 5786 5790 5790 5787 5787 5795 5795 5804 5807 5812 5817 5814 5818 5814 5815 5815 5816 5818
5769 5750 5749 5781 5770 5763 5763 5752 5762 5751 5745 5724 5714 5733 5790 5777 5779 5772 5774 5780 5784 5785 5786 5788 5791 5791 5788 5787 5785 5782 5779 5784 5795 5807 5816 5821 5815 5816 5814 5817 5816 5817 5816 5816
5751 5745 5720 5746 5778 5788 5776 5762 5753 5711 5720 5731 5729 5726 5778 5769 5764 5761 5758 5764 5768 5769 5772 5777 5783 5785 5785 5784 5782 5779 5778 5781 5789 5806 5814 5816 5818 5816 5812 5814 5814 5816 5816 5816
5737 5716 5700 5727 5750 5751 5751 5758 5760 5745 5737 5721 5707 5717 5768 5762 5750 5744 5740 5744 5751 5754 5759 5764 5770 5777 5778 5778 5776 5772 5771 5768 5774 5790 5799 5809 5811 5809 5814 5814 5812 5816 5815 5815
5739 5717 5707 5685 5710 5723 5716 5731 5741 5734 5703 5711 5722 5739 5727 5730 5721 5723 5726 5726 5727 5730 5733 5738 5747 5756 5764 5767 5764 5764 5761 5762 5763 5768 5781 5788 5800 5807 5808 5813 5813 5813 5817 5815
5724 5700 5710 5713 5722 5723 5719 5720 5725 5718 5723 5709 5719 5709 5693 5698 5702 5708 5712 5714 5712 5713 5717 5718 5722 5734 5743 5748 5748 5752 5755 5752 5753 5755 5762 5771 5783 5793 5800 5804 5809 5813 5813 5815
5719 5690 5705 5696 5713 5716 5709 5720 5724 5723 5723 5717 5710 5687 5696 5694 5698 5696 5701 5705 5705 5703 5703 5705 5710 5716 5722 5731 5737 5740 5743 5748 5747 5745 5747 5758 5768 5777 5788 5797 5805 5807 5815 5816
5699 5684 5672 5668 5689 5691 5681 5708 5711 5710 5698 5691 5666 5671 5686 5684 5689 5690 5687 5684 5687 5686 5688 5689 5690 5696 5703 5708 5716 5723 5729 5735 5739 5741 5743 5745 5756 5766 5776 5789 5800 5808 5801 5804
5684 5679 5670 5651 5665 5644 5681 5704 5703 5696 5683 5676 5669 5670 5670 5667 5670 5672 5665 5666 5665 5661 5664 5668 5671 5679 5686 5695 5698 5708 5716 5716 5723 5729 5734 5738 5743 5755 5767 5776 5790 5793 5793 5784
5689 5670 5651 5641 5641 5663 5676 5675 5672 5665 5651 5662 5659 5660 5659 5658 5657 5650 5647 5646 5644 5646 5646 5652 5655 5661 5672 5678 5685 5689 5698 5700 5703 5713 5719 5727 5733 5742 5754 5764 5775 5786 5779 5785
5681 5670 5647 5639 5629 5627 5647 5668 5676 5672 5627 5647 5644 5637 5631 5627 5614 5620 5625 5626 5629 5632 5632 5633 5641 5646 5650 5656 5665 5675 5675 5679 5684 5695 5705 5711 5717 5728 5742 5754 5765 5774 5779 5781
5650 5649 5637 5633 5628 5638 5651 5661 5670 5628 5610 5629 5627 5618 5610 5600 5594 5597 5598 5600 5604 5607 5609 5613 5617 5618 5622 5626 5633 5642 5647 5655 5667 5679 5690 5697 5706 5716 5732 5745 5756 5765 5767 5768
5648 5636 5633 5633 5628 5617 5652 5653 5632 5623 5621 5618 5610 5603 5594 5586 5583 5580 5578 5574 5575 5580 5582 5583 5591 5593 5597 5599 5600 5610 5621 5632 5645 5659 5673 5684 5693 5706 5723 5736 5749 5757 5758 5758
5638 5646 5630 5631 5623 5634 5631 5626 5626 5623 5611 5604 5595 5586 5578 5573 5566 5561 5559 5554 5553 5553 5553 5556 5565 5570 5571 5576 5577 5585 5598 5606 5624 5643 5660 5672 5683 5699 5716 5729 5741 5746 5751 5751
5658 5658 5634 5635 5632 5630 5627 5614 5613 5611 5601 5590 5581 5573 5562 5552 5547 5542 5537 5535 5531 5527 5527 5530 5537 5546 5548 5550 5555 5564 5578 5591 5608 5627 5647 5660 5675 5694 5712 5721 5732 5739 5740 5743
5648 5645 5637 5628 5618 5616 5608 5604 5610 5599 5591 5578 5572 5563 5551 5542 5538 5533 5525 5519 5514 5513 5513 5513 5517 5525 5529 5534 5539 5547 5563 5583 5600 5619 5640 5655 5672 5689 5695 5701 5710 5721 5722 5732
5647 5635 5619 5611 5612 5605 5605 5603 5598 5587 5572 5566 5565 5553 5546 5539 5534 5531 5521 5509 5510 5509 5507 5508 5508 5513 5520 5524 5528 5537 5552 5569 5593 5615 5634 5653 5670 5679 5685 5689 5695 5697 5701 5706